NOZ545 ENZV-ENGM

Flight info

Callsign NOZ545
Flight time 0h 38m
Altitude 29000
Route UPLEV DCT OSKOM DCT RIPAM
Aircraft B738/M-SDE2E3FGHIRWXY/LB1

Departure

Time 2026-05-06 16:58
Airport Stavanger Airport, Sola (ENZV)

Arrival

Time 2026-05-06 17:37
Airport Oslo-Gardermoen International Airport (ENGM)
Time Latitude Longitude Altitude Speed Heading
2026-05-06 16:33 58.88357 5.63011 24 ft 0 kts 223°
2026-05-06 16:49 58.88366 5.63028 29 ft 2 kts 223°
2026-05-06 16:49 58.88379 5.63050 27 ft 2 kts 223°
2026-05-06 16:49 58.88391 5.63074 30 ft 2 kts 227°
2026-05-06 16:50 58.88403 5.63098 31 ft 2 kts 227°
2026-05-06 16:50 58.88404 5.63101 29 ft 0 kts 227°
2026-05-06 16:53 58.88402 5.63098 29 ft 1 kts 216°
2026-05-06 16:53 58.88387 5.63109 27 ft 5 kts 134°
2026-05-06 16:53 58.88366 5.63198 27 ft 10 kts 121°
2026-05-06 16:54 58.88291 5.63269 29 ft 2 kts 163°
2026-05-06 16:54 58.88278 5.63314 30 ft 6 kts 99°
2026-05-06 16:54 58.88249 5.63422 30 ft 15 kts 156°
2026-05-06 16:54 58.88122 5.63434 29 ft 20 kts 179°
2026-05-06 16:55 58.87981 5.63404 30 ft 21 kts 199°
2026-05-06 16:55 58.87850 5.63298 29 ft 20 kts 195°
2026-05-06 16:55 58.87705 5.63292 31 ft 22 kts 179°
2026-05-06 16:55 58.87546 5.63297 30 ft 24 kts 179°
2026-05-06 16:56 58.87376 5.63301 31 ft 24 kts 179°
2026-05-06 16:56 58.87210 5.63315 30 ft 18 kts 177°
2026-05-06 16:56 58.87076 5.63314 32 ft 20 kts 176°
2026-05-06 16:56 58.86960 5.63457 31 ft 21 kts 118°
2026-05-06 16:57 58.86952 5.63712 35 ft 17 kts 79°
2026-05-06 16:57 58.87012 5.63804 35 ft 7 kts 358°
2026-05-06 16:57 58.87026 5.63802 35 ft 0 kts 356°
2026-05-06 16:57 58.87044 5.63801 34 ft 11 kts 358°
2026-05-06 16:58 58.87399 5.63792 33 ft 92 kts 359°
2026-05-06 16:58 58.88276 5.63758 73 ft 155 kts 354°
2026-05-06 16:58 58.89399 5.63727 865 ft 163 kts 356°
2026-05-06 16:58 58.90492 5.63694 2065 ft 151 kts 358°
2026-05-06 16:59 58.91564 5.63663 2801 ft 166 kts 357°
2026-05-06 16:59 58.92835 5.63621 3112 ft 196 kts 358°
2026-05-06 16:59 58.94279 5.63572 3464 ft 216 kts 358°
2026-05-06 16:59 58.95855 5.63517 3793 ft 239 kts 358°
2026-05-06 17:00 58.97556 5.63449 4465 ft 249 kts 358°
2026-05-06 17:00 58.99287 5.63385 5470 ft 249 kts 358°
2026-05-06 17:00 59.01036 5.63316 6412 ft 253 kts 357°
2026-05-06 17:00 59.02809 5.63242 7282 ft 258 kts 356°
2026-05-06 17:01 59.04623 5.63396 8066 ft 267 kts 11°
2026-05-06 17:01 59.06281 5.65112 8900 ft 279 kts 40°
2026-05-06 17:01 59.07407 5.68248 9716 ft 291 kts 65°
2026-05-06 17:01 59.07881 5.72141 10397 ft 304 kts 82°
2026-05-06 17:02 59.08045 5.76420 10619 ft 331 kts 86°
2026-05-06 17:02 59.08135 5.81010 11042 ft 347 kts 87°
2026-05-06 17:02 59.08208 5.85758 11704 ft 355 kts 87°
2026-05-06 17:02 59.08288 5.90597 12439 ft 361 kts 87°
2026-05-06 17:03 59.08378 5.95520 13162 ft 367 kts 87°
2026-05-06 17:03 59.08477 6.00529 13867 ft 374 kts 87°
2026-05-06 17:03 59.08585 6.05622 14532 ft 380 kts 87°
2026-05-06 17:03 59.08697 6.10784 15242 ft 383 kts 87°
2026-05-06 17:04 59.08812 6.15995 15900 ft 389 kts 87°
2026-05-06 17:04 59.08926 6.21300 16549 ft 395 kts 87°
2026-05-06 17:04 59.09039 6.26669 17202 ft 400 kts 87°
2026-05-06 17:04 59.09152 6.32109 17858 ft 405 kts 88°
2026-05-06 17:05 59.09264 6.37622 18477 ft 410 kts 88°
2026-05-06 17:05 59.09374 6.43169 19149 ft 411 kts 88°
2026-05-06 17:05 59.09483 6.48736 19758 ft 414 kts 88°
2026-05-06 17:05 59.09591 6.54370 20280 ft 420 kts 88°
2026-05-06 17:06 59.09697 6.60071 20823 ft 424 kts 88°
2026-05-06 17:06 59.09802 6.65826 21401 ft 427 kts 89°
2026-05-06 17:06 59.09905 6.71634 21960 ft 431 kts 89°
2026-05-06 17:06 59.10008 6.77482 22498 ft 435 kts 89°
2026-05-06 17:07 59.10109 6.83398 23025 ft 439 kts 89°
2026-05-06 17:07 59.10307 6.89352 23538 ft 444 kts 83°
2026-05-06 17:07 59.10787 6.95311 23980 ft 447 kts 80°
2026-05-06 17:07 59.11355 7.01286 24428 ft 451 kts 79°
2026-05-06 17:08 59.11940 7.07298 24861 ft 454 kts 79°
2026-05-06 17:08 59.12515 7.13360 25050 ft 458 kts 80°
2026-05-06 17:08 59.12886 7.17415 25021 ft 462 kts 81°
2026-05-06 17:08 59.13435 7.23586 25017 ft 461 kts 81°
2026-05-06 17:09 59.13968 7.29732 25012 ft 460 kts 81°
2026-05-06 17:09 59.14495 7.35864 25017 ft 459 kts 81°
2026-05-06 17:09 59.15020 7.42003 25011 ft 459 kts 81°
2026-05-06 17:09 59.15541 7.48129 24998 ft 458 kts 81°
2026-05-06 17:10 59.16061 7.54264 25032 ft 461 kts 81°
2026-05-06 17:10 59.16584 7.60464 25379 ft 465 kts 82°
2026-05-06 17:10 59.17105 7.66679 25943 ft 464 kts 82°
2026-05-06 17:10 59.17622 7.72870 26511 ft 461 kts 82°
2026-05-06 17:11 59.18134 7.79030 27149 ft 459 kts 83°
2026-05-06 17:11 59.18639 7.85152 27750 ft 457 kts 83°
2026-05-06 17:11 59.19141 7.91264 28322 ft 455 kts 83°
2026-05-06 17:11 59.19638 7.97371 28754 ft 457 kts 83°
2026-05-06 17:12 59.20136 8.03539 28994 ft 464 kts 84°
2026-05-06 17:12 59.21146 8.16181 28976 ft 475 kts 83°
2026-05-06 17:13 59.22871 8.28479 28970 ft 469 kts 64°
2026-05-06 17:13 59.26453 8.39218 28278 ft 482 kts 49°
2026-05-06 17:13 59.28546 8.44272 27919 ft 474 kts 49°
2026-05-06 17:14 59.30624 8.49219 27468 ft 469 kts 48°
2026-05-06 17:14 59.32687 8.54147 27143 ft 465 kts 49°
2026-05-06 17:14 59.34735 8.59086 26690 ft 468 kts 49°
2026-05-06 17:14 59.36776 8.64059 26299 ft 467 kts 49°
2026-05-06 17:15 59.38792 8.69015 25871 ft 463 kts 49°
2026-05-06 17:15 59.40781 8.73937 25481 ft 458 kts 49°
2026-05-06 17:15 59.42745 8.78816 25100 ft 453 kts 49°
2026-05-06 17:15 59.44688 8.83656 24710 ft 449 kts 49°
2026-05-06 17:16 59.46610 8.88449 24332 ft 445 kts 48°
2026-05-06 17:16 59.48490 8.93147 23957 ft 441 kts 48°
2026-05-06 17:16 59.50381 8.97879 23581 ft 438 kts 48°
2026-05-06 17:16 59.52278 9.02636 23134 ft 434 kts 48°
2026-05-06 17:17 59.54130 9.07287 22740 ft 430 kts 48°
2026-05-06 17:17 59.55963 9.11900 22391 ft 425 kts 48°
2026-05-06 17:17 59.57784 9.16493 22005 ft 426 kts 48°
2026-05-06 17:17 59.59588 9.21047 21633 ft 428 kts 48°
2026-05-06 17:18 59.61453 9.25620 21275 ft 425 kts 45°
2026-05-06 17:18 59.63428 9.29903 21012 ft 419 kts 42°
2026-05-06 17:18 59.65452 9.34041 20752 ft 418 kts 41°
2026-05-06 17:18 59.67488 9.38138 20475 ft 417 kts 41°
2026-05-06 17:19 59.69514 9.42228 20126 ft 415 kts 41°
2026-05-06 17:19 59.71518 9.46316 19733 ft 412 kts 42°
2026-05-06 17:19 59.73511 9.50418 19189 ft 414 kts 42°
2026-05-06 17:19 59.75496 9.54538 18803 ft 411 kts 42°
2026-05-06 17:20 59.77449 9.58618 18421 ft 406 kts 43°
2026-05-06 17:20 59.79379 9.62666 18030 ft 402 kts 43°
2026-05-06 17:20 59.81289 9.66680 17610 ft 397 kts 43°
2026-05-06 17:20 59.83175 9.70654 17257 ft 393 kts 42°
2026-05-06 17:21 59.85045 9.74598 16859 ft 390 kts 43°
2026-05-06 17:21 59.86895 9.78502 16480 ft 385 kts 43°
2026-05-06 17:21 59.88721 9.82364 16132 ft 381 kts 43°
2026-05-06 17:21 59.90526 9.86194 15778 ft 377 kts 43°
2026-05-06 17:22 59.92313 9.89991 15430 ft 374 kts 43°
2026-05-06 17:22 59.94081 9.93753 15087 ft 370 kts 44°
2026-05-06 17:22 59.95836 9.97492 14728 ft 368 kts 44°
2026-05-06 17:22 59.97585 10.01221 14398 ft 368 kts 44°
2026-05-06 17:23 59.99334 10.04956 14071 ft 368 kts 44°
2026-05-06 17:23 60.01084 10.08701 13720 ft 368 kts 44°
2026-05-06 17:23 60.02823 10.12431 13322 ft 366 kts 44°
2026-05-06 17:23 60.04548 10.16136 12972 ft 361 kts 44°
2026-05-06 17:24 60.06241 10.19783 12636 ft 356 kts 45°
2026-05-06 17:24 60.07913 10.23388 12318 ft 350 kts 45°
2026-05-06 17:24 60.09561 10.26947 11969 ft 346 kts 46°
2026-05-06 17:24 60.11189 10.30465 11655 ft 342 kts 46°
2026-05-06 17:25 60.12797 10.33947 11316 ft 338 kts 46°
2026-05-06 17:25 60.14381 10.37380 11015 ft 331 kts 46°
2026-05-06 17:25 60.15929 10.40742 10695 ft 324 kts 46°
2026-05-06 17:25 60.17440 10.44029 10399 ft 317 kts 46°
2026-05-06 17:26 60.18916 10.47245 10111 ft 309 kts 47°
2026-05-06 17:26 60.20347 10.50366 9967 ft 297 kts 47°
2026-05-06 17:26 60.21736 10.53398 9798 ft 293 kts 47°
2026-05-06 17:26 60.23121 10.56428 9506 ft 294 kts 47°
2026-05-06 17:27 60.24498 10.59445 9228 ft 293 kts 47°
2026-05-06 17:27 60.25877 10.62470 8967 ft 292 kts 47°
2026-05-06 17:27 60.27252 10.65489 8689 ft 292 kts 47°
2026-05-06 17:27 60.28624 10.68507 8423 ft 292 kts 47°
2026-05-06 17:28 60.29997 10.71532 8138 ft 292 kts 47°
2026-05-06 17:28 60.31360 10.74536 7887 ft 288 kts 47°
2026-05-06 17:28 60.32698 10.77491 7630 ft 282 kts 47°
2026-05-06 17:28 60.34007 10.80385 7334 ft 277 kts 46°
2026-05-06 17:29 60.35285 10.83214 7120 ft 270 kts 47°
2026-05-06 17:29 60.36534 10.85984 6883 ft 263 kts 47°
2026-05-06 17:29 60.37755 10.88692 6646 ft 258 kts 46°
2026-05-06 17:29 60.38955 10.91359 6404 ft 254 kts 46°
2026-05-06 17:30 60.40137 10.93985 6138 ft 250 kts 46°
2026-05-06 17:30 60.41296 10.96565 5881 ft 246 kts 46°
2026-05-06 17:30 60.42436 10.99108 5795 ft 242 kts 47°
2026-05-06 17:30 60.43567 11.01632 5696 ft 242 kts 47°
2026-05-06 17:31 60.44694 11.04162 5587 ft 242 kts 49°
2026-05-06 17:31 60.45420 11.07167 5453 ft 238 kts 83°
2026-05-06 17:31 60.45213 11.10399 5237 ft 230 kts 116°
2026-05-06 17:31 60.44351 11.13035 5048 ft 223 kts 135°
2026-05-06 17:32 60.43257 11.15230 4799 ft 220 kts 139°
2026-05-06 17:32 60.42153 11.17338 4569 ft 216 kts 139°
2026-05-06 17:32 60.41031 11.19324 4327 ft 213 kts 151°
2026-05-06 17:32 60.39648 11.19893 4138 ft 204 kts 196°
2026-05-06 17:33 60.38330 11.18784 4088 ft 210 kts 204°
2026-05-06 17:33 60.36921 11.17915 3907 ft 213 kts 197°
2026-05-06 17:33 60.35494 11.17154 3583 ft 209 kts 198°
2026-05-06 17:33 60.34123 11.16380 3321 ft 199 kts 198°
2026-05-06 17:34 60.32826 11.15637 3061 ft 188 kts 199°
2026-05-06 17:34 60.31592 11.14922 2800 ft 183 kts 199°
2026-05-06 17:34 60.30367 11.14217 2547 ft 182 kts 199°
2026-05-06 17:34 60.29160 11.13526 2269 ft 174 kts 199°
2026-05-06 17:35 60.28029 11.12870 2063 ft 167 kts 199°
2026-05-06 17:35 60.26949 11.12246 1865 ft 155 kts 198°
2026-05-06 17:35 60.25937 11.11662 1618 ft 149 kts 198°
2026-05-06 17:36 60.23946 11.10519 1216 ft 152 kts 199°
2026-05-06 17:36 60.22929 11.09930 1008 ft 152 kts 199°
2026-05-06 17:36 60.21914 11.09348 785 ft 150 kts 199°
2026-05-06 17:36 60.20944 11.08787 678 ft 134 kts 198°
2026-05-06 17:37 60.20252 11.08383 672 ft 73 kts 196°
2026-05-06 17:37 60.19991 11.08250 672 ft 22 kts 178°
2026-05-06 17:37 60.19909 11.08379 672 ft 14 kts 124°
2026-05-06 17:37 60.19885 11.08496 672 ft 0 kts 105°
2026-05-06 17:38 60.19885 11.08501 672 ft 2 kts 105°
2026-05-06 17:38 60.19877 11.08561 674 ft 6 kts 104°
2026-05-06 17:39 60.19861 11.08667 677 ft 10 kts 107°
2026-05-06 17:39 60.19832 11.08861 676 ft 18 kts 107°
2026-05-06 17:39 60.19798 11.09086 678 ft 15 kts 105°
2026-05-06 17:39 60.19765 11.09291 681 ft 14 kts 127°
2026-05-06 17:40 60.19685 11.09401 680 ft 12 kts 124°
2026-05-06 17:40 60.19652 11.09477 680 ft 5 kts 178°
2026-05-06 17:40 60.19622 11.09460 680 ft 5 kts 197°
2026-05-06 17:40 60.19591 11.09442 680 ft 5 kts 197°
2026-05-06 17:41 60.19569 11.09429 680 ft 2 kts 196°
2026-05-06 17:41 60.19566 11.09427 679 ft 0 kts 196°